カタログに戻る

STARLINK-31151

運用中通信VLEO
NORAD 58742·PAYLOAD·🇺🇸 United States

打ち上げ Jan 7, 2024 から Cape Canaveral Space Force Station

Loading…

次のパス (今後24時間)

TLE

最新Source: CelesTrak SupGP

元期: Sep 15, 2026, 03:01 UTC

1 58742C 24005Q   26258.12618056 -.00014135  00000+0 -51194-3 0  2585
2 58742  43.0018 229.7658 0001217 263.5285 232.1312 15.27586569    14

AllMySatでSTARLINK-31151をリアルタイム追跡

Download on the App Store